Location: Lafig�re
(44.4503°N, 4.0357°E)
Time: 00:36:00
(UTC+00:00)

deb Explorer IX - Pass Details

Date: 21 January 2021
Orbit: 537 x 1102 km, 38.8° (Epoch: 03 March)

Event Time Altitude Azimuth Distance (km) Brightness Sun altitude
Rises 17:29:58 0° 214° (SW) 3,649 ? -9.3°
Reaches altitude 10° 17:33:25 10° 199° (SSW) 2,602 ? -9.9°
Maximum altitude 17:37:47 20° 154° (SSE) 1,838 ? -10.7°
Drops below altitude 10° 17:41:45 10° 108° (ESE) 2,319 ? -11.3°
Enters shadow 17:41:52 10° 107° (ESE) 2,349 ? -11.4°
